Tracking 19570 objects as of 22-Feb-2019
HD Live streaming from Space Station
objects crossing your sky now

SL-18 DEB

Track SL-18 DEB now!
10-day predictions


NORAD ID: 35360
Int'l Code: 1993-014BK
Perigee: 598.3 km
Apogee: 692.8 km
Inclination: 75.7 °
Period: 97.5 minutes
Semi major axis: 7016 km
RCS: 0.0136 m2 (small)
Launch date: March 25, 1993
Source: Commonwealth of Independent States (former USSR) (CIS)
Launch site: PLESETSK MISSILE AND SPACE COMPLEX (PKMTR)

Note: This is SATELLITE DEBRIS
aabbcc
Your satellite tracking list
Your tracking list is empty




NASA's NSSDC Master Catalog

Two Line Element Set (TLE):
1 35360U 93014BK  19050.01436365  .00001775  00000-0  24468-3 0  9994
2 35360  75.7403 294.8712 0067322 302.1180  57.3482 14.77126117633887
Source of the keplerian elements: AFSPC